Page, AZ

5:57 PM MST on December 03, 2016 (GMT -0700)
Page Municipal

Weather History for KPGA - March, 2014

Change the Weather History Date:

Thursday, March 13, 2014

  Actual Average Record
Temperature  
Mean Temperature 50 °F -  
Max Temperature 57 °F 58 °F 78 °F (2007)
Min Temperature 43 °F 36 °F 22 °F (1962)
Degree Days  
Heating Degree Days 15    
Moisture  
Dew Point 18 °F    
Average Humidity 28    
Maximum Humidity 46    
Minimum Humidity 11    
Precipitation  
Precipitation 0.00 in - - ()
Sea Level Pressure  
Sea Level Pressure 29.99 in    
Wind  
Wind Speed 3 mph (SSW)    
Max Wind Speed 8 mph    
Max Gust Speed -    
Visibility 10 miles    
Events      
Averages and records for this station are not official NWS values.
T = Trace of Precipitation, MM = Missing Value Source: NWS Daily Summary

Daily Weather History Graph

Daily Weather History Graph

Search for Another Location

Airport or City:

Trip Planner

Search our weather history database for the weather conditions in past years. The results will help you decide how hot, cold, wet, or windy it might be!

Date:

Astronomy

Mar. 13, 2014 Rise Set
Actual Time 6:39 AM MST 6:31 PM MST
Civil Twilight 6:13 AM MST 6:57 PM MST
Nautical Twilight 5:43 AM MST 7:27 PM MST
Astronomical Twilight 5:13 AM MST 7:57 PM MST
Moon 4:03 PM MST (3/13) 4:45 AM MST (3/13)
Length of Visible Light 12h 43m
Length of Day
11h 51m
Waxing Gibbous, 92% of the Moon is Illuminated
Mar 13
Waxing Gibbous
Mar 16
Full
Mar 23
Last Quarter
Mar 30
New
Apr 7
First Quarter

Hourly Weather History & Observations

Time (MST) Temp. Windchill Dew Point Humidity Pressure Visibility Wind Dir Wind Speed Gust Speed Precip Events Conditions
12:53 AM 43.0 °F 41.3 °F 14.0 °F 31% 30.09 in 10.0 mi SW 3.5 mph - N/A   Clear
1:53 AM 42.1 °F - 14.0 °F 32% 30.08 in 10.0 mi Calm Calm - N/A   Clear
2:53 AM 41.0 °F 38.0 °F 14.0 °F 33% 30.07 in 10.0 mi SW 4.6 mph - N/A   Clear
3:53 AM 39.9 °F 37.8 °F 14.0 °F 35% 30.05 in 6.0 mi SSW 3.5 mph - N/A   Haze
4:53 AM 44.1 °F - 15.1 °F 31% 30.03 in 10.0 mi Calm Calm - N/A   Mostly Cloudy
5:53 AM 43.0 °F 41.3 °F 15.1 °F 32% 30.04 in 10.0 mi SW 3.5 mph - N/A   Scattered Clouds
6:53 AM 43.0 °F - 16.0 °F 34% 30.05 in 10.0 mi Calm Calm - N/A   Clear
7:53 AM 45.0 °F - 15.1 °F 30% 30.05 in 10.0 mi Calm Calm - N/A   Clear
8:53 AM 48.0 °F - 14.0 °F 26% 30.06 in 10.0 mi Calm Calm - N/A   Scattered Clouds
9:53 AM 48.0 °F - 15.1 °F 27% 30.05 in 10.0 mi NNW 4.6 mph - N/A   Mostly Cloudy
10:53 AM 48.9 °F - 12.9 °F 24% 30.04 in 10.0 mi NW 6.9 mph - N/A   Mostly Cloudy
11:53 AM 52.0 °F - 14.0 °F 22% 30.01 in 10.0 mi Variable 3.5 mph - N/A   Mostly Cloudy
12:53 PM 54.0 °F - 15.1 °F 22% 29.98 in 10.0 mi North 8.1 mph - N/A   Mostly Cloudy
1:53 PM 54.0 °F - 15.1 °F 22% 29.95 in 10.0 mi NW 6.9 mph - N/A   Mostly Cloudy
2:53 PM 55.9 °F - 15.1 °F 20% 29.94 in 10.0 mi Variable 4.6 mph - N/A   Overcast
3:53 PM 57.0 °F - 16.0 °F 20% 29.93 in 10.0 mi East 4.6 mph - N/A   Overcast
4:53 PM 57.0 °F - 17.1 °F 21% 29.91 in 10.0 mi Calm Calm - N/A   Overcast
5:53 PM 55.9 °F - 17.1 °F 22% 29.91 in 10.0 mi East 4.6 mph - N/A   Overcast
6:53 PM 52.0 °F - 24.1 °F 34% 29.91 in 10.0 mi SSE 6.9 mph - N/A   Overcast
7:53 PM 53.1 °F - 25.0 °F 34% 29.91 in 10.0 mi NE 5.8 mph - N/A   Overcast
8:53 PM 51.1 °F - 26.1 °F 38% 29.91 in 10.0 mi SSE 5.8 mph - N/A   Overcast
9:53 PM 48.9 °F - 26.1 °F 41% 29.93 in 10.0 mi SSE 4.6 mph - N/A   Partly Cloudy
10:53 PM 48.0 °F - 26.1 °F 42% 29.94 in 8.0 mi Calm Calm - N/A   Clear
11:53 PM 46.0 °F - 26.1 °F 46% 29.93 in 9.0 mi Calm Calm - N/A   Clear